Regional Weather Roundup
Issued by NWS Jackson, KY

Home | Current Version | Previous Version | Graphics & Text | Print | Product List | Glossary On
Versions: 1 2 3 4 5 6 7 8 9 10 11 12 13 14 15 16 17 18 19 20 21 22 23 24 25 26 27
000
ASUS43 KJKL 231210
RWRJKL

EAST KENTUCKY HOURLY WEATHER ROUNDUP
NATIONAL WEATHER SERVICE JACKSON KY
800 AM EDT SAT SEP 23 2017

NOTE: "FAIR" INDICATES FEW OR NO CLOUDS BELOW 12,000 FEET WITH
NO SIGNIFICANT WEATHER AND/OR OBSTRUCTIONS TO VISIBILITY.

* THESE REPORTS ARE NOT UNDER NWS QUALITY CONTROL AND MAY NOT
  REPORT WEATHER SUCH AS PRECIPITATION AND FOG.

KYZ079-080-083-085-087-088-110-112-115-119-120-231300
...EASTERN KENTUCKY...

CITY           SKY/WX    TMP DP  RH WIND       PRES   REMARKS
JACKSON        CLEAR     64  62  93 CALM      30.11R FOG
6HR MIN TEMP:  64; 6HR MAX TEMP:  68;

LONDON         CLEAR     62  60  93 CALM      30.10R FOG
6HR MIN TEMP:  61; 6HR MAX TEMP:  65;

SOMERSET*      CLEAR     59  59 100 CALM      30.10R FOG
MONTICELLO*    PTCLDY    59  59 100 W7        30.11R FOG
6HR MIN TEMP:  58; 6HR MAX TEMP:  63;

WILLIAMSBURG*  CLOUDY    63  63 100 CALM      30.09R VSB<1/4
MIDDLESBORO*   FOG       62  62 100 CALM      30.11S VSB 1/2
6HR MIN TEMP:  62; 6HR MAX TEMP:  64;

HARLAN APT*    CLOUDY    61  61 100 CALM      30.13R
PIKE CO APT*   FOG       63  63 100 CALM      30.11R VSB 1/2
BIG SANDY APT* FOG       60  60 100 CALM      30.11R VSB<1/4
6HR MIN TEMP:  59; 6HR MAX TEMP:  66;

MOREHEAD APT*  FOG       61  59  94 CALM      30.13R VSB<1/4
$$

KYZ035-036-041-042-044-050-067-078-099-231300
...CENTRAL KENTUCKY...

CITY           SKY/WX    TMP DP  RH WIND       PRES   REMARKS
MT STERLING*   FOG       61  61 100 NE3       30.14R VSB<1/4
FLEMING/MASON* FOG       61  61 100 NE3       30.14R VSB 1
DANVILLE*      FOG       59  59 100 CALM      30.11R VSB 1
LEXINGTON      CLEAR     66  62  87 CALM      30.11R FOG
6HR MIN TEMP:  63; 6HR MAX TEMP:  68;

FRANKFORT      CLEAR     63  59  87 N3        30.09R FOG
6HR MIN TEMP:  62; 6HR MAX TEMP:  66;

LOUISVILLE     PTCLDY    70  65  84 CALM      30.09R
6HR MIN TEMP:  68; 6HR MAX TEMP:  75;

LEBANON*         N/A     63  63 100 CALM      30.09S FOG
GLASGOW*       CLEAR    N/A N/A N/A CALM      30.08R FOG
BOWLING GREEN  CLEAR     66  66 100 CALM      30.07R FOG
6HR MIN TEMP:  65; 6HR MAX TEMP:  71;

$$

KYZ091>093-OHZ055-061-077-WVZ005-015-034-035-042-231300
...SOUTHERN OHIO/WEST VIRGINIA...

CITY           SKY/WX    TMP DP  RH WIND       PRES   REMARKS
COVINGTON      PTCLDY    66  66 100 CALM      30.11R
COLUMBUS       PTCLDY    64  62  93 N5        30.12R
DAYTON         CLEAR     65  63  93 CALM      30.14R FOG
WILMINGTON     CLEAR     62  61  96 NE5       30.13R FOG
HUNTINGTON     FOG       63  62  97 CALM      30.09R VSB<1/4
CHARLESTON     FOG       61  60  97 CALM      30.11R VSB 1/4
PINEVILLE*     FOG       61  60  97 MISG      30.19R VSB 1/4
BECKLEY        CLEAR     61  58  90 CALM      30.17R
BLUEFIELD      CLEAR     60  59  96 E3        30.18R FOG
LOGAN CO APT*  FOG       63  63 100 CALM      30.12R VSB 1/2
$$

VAZ002-007-008-TNZ017-027-036-066-071-231300
...SOUTHWEST VIRGINIA/EAST TENNESSEE...

CITY           SKY/WX    TMP DP  RH WIND       PRES   REMARKS
WISE*          CLEAR     63  63 100 CALM      30.18R
JONESVILLE*      N/A     61  59  94 CALM      30.14R FOG
ABINGDON*      CLEAR     65  64  94 E3        30.14S
BRISTOL        CLOUDY    62  62 100 CALM      30.12R
MORRISTOWN*    SUNNY     66  63  88 CALM      30.08S
SEVIERVILLE*   SUNNY     63  61  94 CALM      30.08S
KNOXVILLE      MOCLDY    67  63  87 CALM      30.07R
LAFOLLETTE*    FOG       63  63 100 CALM      30.12S VSB 1/2
OAK RIDGE      CLOUDY    67  64  90 CALM      30.09R
CROSSVILLE     CLEAR     62  61  96 CALM      30.13R FOG
NASHVILLE      CLEAR     68  66  93 CALM      30.05R
$$

...KEY TO REMARKS...
VSB - VISIBILITY IN MILES
WCI - WIND CHILL INDEX
HX  - HEAT INDEX

$$




USA.gov is the U.S. government's official web portal to all federal, state and local government web resources and services.